CES27LX ZGGG-ZULS

Flight info

Callsign CES27LX
Flight time 3h 34m
Altitude 36100
Route AGVIL9 AGVIL W24 OSNOV G586 QP B330 ELKAL W179 BIPIP/K0895S1160 W179 IGNAK/K0885S1130 W179 WFX/K0885S1160 B213 LXA
Aircraft MD11/H-SDE1E2E3FGHIJ2J3J4J5M1RWXY/LB1D1

Departure

Time 2026-04-23 08:51
Airport Guangzhou Baiyun International Airport (ZGGG)

Arrival

Time 2026-04-23 12:25
Airport Lhasa Gonggar International Airport (ZULS)
Time Latitude Longitude Altitude Speed Heading
2026-04-23 08:16 23.39776 113.31940 66 ft 0 kts 284°
2026-04-23 08:34 23.39773 113.31956 56 ft 4 kts 284°
2026-04-23 08:35 23.39766 113.31984 63 ft 4 kts 284°
2026-04-23 08:35 23.39761 113.32008 56 ft 4 kts 262°
2026-04-23 08:35 23.39767 113.32027 66 ft 4 kts 213°
2026-04-23 08:35 23.39790 113.32037 62 ft 4 kts 192°
2026-04-23 08:36 23.39799 113.32040 66 ft 0 kts 194°
2026-04-23 08:40 23.39796 113.32039 66 ft 3 kts 194°
2026-04-23 08:40 23.39710 113.32016 58 ft 13 kts 194°
2026-04-23 08:40 23.39689 113.32008 66 ft 4 kts 206°
2026-04-23 08:41 23.39678 113.31989 66 ft 5 kts 247°
2026-04-23 08:41 23.39687 113.31934 66 ft 10 kts 285°
2026-04-23 08:41 23.39703 113.31871 63 ft 16 kts 285°
2026-04-23 08:41 23.39724 113.31751 60 ft 10 kts 265°
2026-04-23 08:42 23.39709 113.31722 64 ft 2 kts 226°
2026-04-23 08:42 23.39687 113.31711 64 ft 6 kts 200°
2026-04-23 08:42 23.39633 113.31694 58 ft 8 kts 195°
2026-04-23 08:42 23.39593 113.31682 66 ft 5 kts 193°
2026-04-23 08:43 23.39571 113.31677 66 ft 2 kts 193°
2026-04-23 08:43 23.39567 113.31676 66 ft 0 kts 193°
2026-04-23 08:43 23.39529 113.31666 61 ft 11 kts 193°
2026-04-23 08:43 23.39414 113.31635 59 ft 21 kts 194°
2026-04-23 08:44 23.39277 113.31597 58 ft 19 kts 194°
2026-04-23 08:44 23.39165 113.31566 58 ft 15 kts 194°
2026-04-23 08:44 23.39076 113.31542 58 ft 11 kts 194°
2026-04-23 08:44 23.39011 113.31524 60 ft 9 kts 193°
2026-04-23 08:45 23.38934 113.31505 57 ft 14 kts 193°
2026-04-23 08:45 23.38819 113.31474 58 ft 20 kts 194°
2026-04-23 08:45 23.38670 113.31433 61 ft 25 kts 194°
2026-04-23 08:45 23.38495 113.31385 59 ft 25 kts 194°
2026-04-23 08:46 23.38340 113.31343 58 ft 21 kts 194°
2026-04-23 08:46 23.38211 113.31309 57 ft 17 kts 193°
2026-04-23 08:46 23.38109 113.31281 58 ft 14 kts 194°
2026-04-23 08:46 23.38016 113.31256 59 ft 17 kts 193°
2026-04-23 08:47 23.37875 113.31219 59 ft 25 kts 193°
2026-04-23 08:47 23.37688 113.31169 61 ft 28 kts 194°
2026-04-23 08:47 23.37514 113.31121 60 ft 24 kts 194°
2026-04-23 08:47 23.37368 113.31080 61 ft 20 kts 194°
2026-04-23 08:48 23.37248 113.31049 57 ft 16 kts 193°
2026-04-23 08:48 23.37155 113.31024 65 ft 12 kts 194°
2026-04-23 08:48 23.37058 113.30998 57 ft 17 kts 194°
2026-04-23 08:48 23.36963 113.30963 57 ft 11 kts 219°
2026-04-23 08:49 23.36948 113.30903 65 ft 7 kts 273°
2026-04-23 08:49 23.36957 113.30845 60 ft 11 kts 282°
2026-04-23 08:49 23.36996 113.30793 64 ft 7 kts 340°
2026-04-23 08:49 23.37060 113.30799 61 ft 7 kts 12°
2026-04-23 08:50 23.37068 113.30801 60 ft 0 kts 12°
2026-04-23 08:50 23.37069 113.30801 60 ft 1 kts 12°
2026-04-23 08:50 23.37292 113.30860 61 ft 78 kts 14°
2026-04-23 08:50 23.38107 113.31075 63 ft 159 kts 13°
2026-04-23 08:51 23.39298 113.31403 554 ft 176 kts 12°
2026-04-23 08:51 23.40421 113.31742 1700 ft 167 kts 14°
2026-04-23 08:51 23.41600 113.32074 2462 ft 190 kts 12°
2026-04-23 08:51 23.42930 113.32415 3257 ft 193 kts 12°
2026-04-23 08:52 23.44328 113.32773 3729 ft 228 kts 11°
2026-04-23 08:52 23.45949 113.33178 4149 ft 248 kts 11°
2026-04-23 08:52 23.47648 113.33615 4946 ft 252 kts 12°
2026-04-23 08:52 23.49320 113.34121 6037 ft 247 kts 16°
2026-04-23 08:53 23.50973 113.34680 6832 ft 251 kts 14°
2026-04-23 08:53 23.52705 113.35186 7407 ft 264 kts 11°
2026-04-23 08:53 23.54494 113.35647 8073 ft 266 kts
2026-04-23 08:53 23.56323 113.36000 8719 ft 270 kts
2026-04-23 08:54 23.58187 113.36365 9459 ft 273 kts
2026-04-23 08:54 23.60069 113.36700 10162 ft 276 kts
2026-04-23 08:54 23.61981 113.37042 10802 ft 281 kts
2026-04-23 08:54 23.63923 113.37402 11391 ft 292 kts
2026-04-23 08:55 23.66022 113.37792 11524 ft 320 kts
2026-04-23 08:55 23.68308 113.38220 11661 ft 346 kts
2026-04-23 08:55 23.70769 113.38686 11795 ft 370 kts
2026-04-23 08:55 23.73367 113.39182 12207 ft 385 kts
2026-04-23 08:56 23.76026 113.39566 12995 ft 385 kts 358°
2026-04-23 08:56 23.78683 113.39433 13724 ft 382 kts 344°
2026-04-23 08:56 23.81180 113.38550 14470 ft 375 kts 328°
2026-04-23 08:56 23.83322 113.36959 15108 ft 373 kts 313°
2026-04-23 08:57 23.84966 113.34804 15796 ft 370 kts 298°
2026-04-23 08:57 23.86048 113.32258 16394 ft 371 kts 284°
2026-04-23 08:57 23.86567 113.29529 16967 ft 374 kts 276°
2026-04-23 08:57 23.86824 113.26653 17631 ft 378 kts 272°
2026-04-23 08:58 23.87007 113.23782 18267 ft 382 kts 272°
2026-04-23 08:58 23.87193 113.20903 18849 ft 386 kts 272°
2026-04-23 08:58 23.87407 113.17928 19449 ft 389 kts 273°
2026-04-23 08:58 23.87706 113.14979 20001 ft 394 kts 280°
2026-04-23 08:59 23.88619 113.12181 20585 ft 402 kts 295°
2026-04-23 08:59 23.90295 113.09651 21143 ft 413 kts 310°
2026-04-23 08:59 23.92548 113.07702 21650 ft 426 kts 324°
2026-04-23 08:59 23.95290 113.06363 22119 ft 438 kts 336°
2026-04-23 09:00 23.98246 113.05419 22601 ft 445 kts 340°
2026-04-23 09:00 24.01275 113.04607 23092 ft 450 kts 341°
2026-04-23 09:00 24.04307 113.03703 23486 ft 453 kts 335°
2026-04-23 09:00 24.07251 113.02489 23947 ft 451 kts 330°
2026-04-23 09:01 24.10064 113.00998 24464 ft 449 kts 326°
2026-04-23 09:01 24.12784 112.99313 24978 ft 449 kts 323°
2026-04-23 09:01 24.15457 112.97516 25448 ft 451 kts 321°
2026-04-23 09:01 24.18109 112.95669 25969 ft 453 kts 321°
2026-04-23 09:02 24.20763 112.93802 26454 ft 455 kts 321°
2026-04-23 09:02 24.23433 112.91924 26914 ft 457 kts 321°
2026-04-23 09:02 24.26113 112.90040 27396 ft 459 kts 321°
2026-04-23 09:02 24.28811 112.88150 27893 ft 460 kts 320°
2026-04-23 09:03 24.31518 112.86257 28311 ft 463 kts 320°
2026-04-23 09:03 24.34253 112.84349 28740 ft 466 kts 320°
2026-04-23 09:03 24.36999 112.82430 29126 ft 468 kts 320°
2026-04-23 09:03 24.39727 112.80478 29519 ft 468 kts 318°
2026-04-23 09:04 24.42308 112.78334 29999 ft 463 kts 313°
2026-04-23 09:04 24.44607 112.75899 30462 ft 456 kts 305°
2026-04-23 09:04 24.46547 112.73170 30930 ft 449 kts 298°
2026-04-23 09:04 24.48096 112.70233 31456 ft 441 kts 291°
2026-04-23 09:05 24.49269 112.67147 31950 ft 435 kts 284°
2026-04-23 09:05 24.50074 112.63980 32534 ft 429 kts 278°
2026-04-23 09:05 24.50561 112.60761 32955 ft 426 kts 275°
2026-04-23 09:05 24.50876 112.57545 33367 ft 424 kts 273°
2026-04-23 09:06 24.51134 112.54336 33719 ft 423 kts 272°
2026-04-23 09:06 24.51395 112.51123 34073 ft 422 kts 273°
2026-04-23 09:06 24.51671 112.47961 34473 ft 420 kts 273°
2026-04-23 09:06 24.51959 112.44774 34844 ft 419 kts 274°
2026-04-23 09:07 24.52252 112.41597 35218 ft 417 kts 273°
2026-04-23 09:07 24.52550 112.38440 35590 ft 414 kts 273°
2026-04-23 09:07 24.52850 112.35293 35834 ft 415 kts 273°
2026-04-23 09:07 24.53152 112.32133 35896 ft 418 kts 273°
2026-04-23 09:08 24.53755 112.25837 35904 ft 412 kts 273°
2026-04-23 09:08 24.54344 112.19594 35901 ft 410 kts 273°
2026-04-23 09:09 24.54939 112.13357 35913 ft 412 kts 273°
2026-04-23 09:09 24.55529 112.07089 35907 ft 412 kts 273°
2026-04-23 09:10 24.56409 111.97706 35909 ft 411 kts 273°
2026-04-23 09:11 24.56991 111.91468 35912 ft 409 kts 273°
2026-04-23 09:11 24.57566 111.85256 35916 ft 408 kts 273°
2026-04-23 09:12 24.58136 111.79046 35915 ft 409 kts 273°
2026-04-23 09:12 24.58703 111.72834 35915 ft 408 kts 273°
2026-04-23 09:13 24.59257 111.66619 35919 ft 409 kts 273°
2026-04-23 09:13 24.59814 111.60413 35914 ft 406 kts 273°
2026-04-23 09:14 24.60369 111.54237 35917 ft 406 kts 273°
2026-04-23 09:14 24.60923 111.48072 35918 ft 405 kts 273°
2026-04-23 09:15 24.61476 111.41893 35929 ft 406 kts 273°
2026-04-23 09:15 24.62024 111.35758 35926 ft 405 kts 273°
2026-04-23 09:16 24.62571 111.29605 35926 ft 404 kts 273°
2026-04-23 09:16 24.63098 111.23452 35926 ft 404 kts 272°
2026-04-23 09:17 24.63622 111.17294 35925 ft 404 kts 273°
2026-04-23 09:17 24.64152 111.11150 35929 ft 404 kts 272°
2026-04-23 09:18 24.64675 111.05007 35923 ft 403 kts 272°
2026-04-23 09:18 24.65202 110.98881 35925 ft 403 kts 272°
2026-04-23 09:19 24.65718 110.92735 35926 ft 404 kts 272°
2026-04-23 09:19 24.66244 110.86594 35936 ft 403 kts 274°
2026-04-23 09:20 24.67378 110.80547 35934 ft 407 kts 284°
2026-04-23 09:20 24.69999 110.74951 35935 ft 420 kts 299°
2026-04-23 09:21 24.73984 110.70123 35928 ft 431 kts 308°
2026-04-23 09:21 24.78394 110.65622 35933 ft 432 kts 309°
2026-04-23 09:22 24.82748 110.61140 35934 ft 431 kts 308°
2026-04-23 09:22 24.87076 110.56590 35928 ft 430 kts 308°
2026-04-23 09:23 24.91406 110.52002 35933 ft 428 kts 307°
2026-04-23 09:23 24.95671 110.47464 35934 ft 429 kts 307°
2026-04-23 09:24 24.99965 110.42900 35934 ft 428 kts 307°
2026-04-23 09:24 25.04256 110.38347 35935 ft 427 kts 307°
2026-04-23 09:25 25.08539 110.33818 35935 ft 427 kts 307°
2026-04-23 09:25 25.12099 110.30056 35935 ft 426 kts 307°
2026-04-23 09:26 25.17096 110.24772 35931 ft 425 kts 307°
2026-04-23 09:26 25.20643 110.21015 35931 ft 424 kts 307°
2026-04-23 09:27 25.24907 110.16517 35932 ft 424 kts 307°
2026-04-23 09:27 25.29174 110.12029 35934 ft 423 kts 307°
2026-04-23 09:28 25.33435 110.07542 35940 ft 423 kts 307°
2026-04-23 09:28 25.37683 110.03064 35935 ft 421 kts 306°
2026-04-23 09:29 25.41922 109.98589 35930 ft 420 kts 306°
2026-04-23 09:29 25.46131 109.94134 35937 ft 420 kts 306°
2026-04-23 09:30 25.50348 109.89671 35905 ft 418 kts 306°
2026-04-23 09:30 25.54556 109.85207 35929 ft 422 kts 306°
2026-04-23 09:31 25.58797 109.80714 35936 ft 420 kts 306°
2026-04-23 09:31 25.62997 109.76268 35929 ft 417 kts 306°
2026-04-23 09:32 25.67192 109.71811 35939 ft 418 kts 306°
2026-04-23 09:32 25.71376 109.67361 35935 ft 416 kts 306°
2026-04-23 09:33 25.75514 109.62893 35937 ft 411 kts 303°
2026-04-23 09:33 25.78631 109.57843 35929 ft 391 kts 286°
2026-04-23 09:34 25.80274 109.52143 35925 ft 386 kts 279°
2026-04-23 09:34 25.81661 109.46354 35949 ft 390 kts 280°
2026-04-23 09:35 25.83112 109.40557 35938 ft 388 kts 281°
2026-04-23 09:35 25.84606 109.34795 35937 ft 388 kts 281°
2026-04-23 09:36 25.86109 109.29024 35933 ft 388 kts 280°
2026-04-23 09:36 25.87606 109.23266 35925 ft 389 kts 281°
2026-04-23 09:37 25.89112 109.17497 35937 ft 390 kts 281°
2026-04-23 09:37 25.90614 109.11722 35934 ft 390 kts 281°
2026-04-23 09:38 25.92115 109.05933 35942 ft 390 kts 281°
2026-04-23 09:38 25.93628 109.00161 35941 ft 391 kts 282°
2026-04-23 09:39 25.95168 108.94368 35943 ft 390 kts 281°
2026-04-23 09:39 25.96701 108.88598 35938 ft 389 kts 281°
2026-04-23 09:40 25.98232 108.82835 35952 ft 388 kts 281°
2026-04-23 09:40 25.99756 108.77078 35940 ft 388 kts 281°
2026-04-23 09:41 26.01276 108.71319 35944 ft 387 kts 281°
2026-04-23 09:41 26.02782 108.65628 35946 ft 381 kts 281°
2026-04-23 09:42 26.04276 108.59980 35942 ft 382 kts 280°
2026-04-23 09:42 26.05772 108.54305 35948 ft 383 kts 280°
2026-04-23 09:43 26.07269 108.48622 35941 ft 382 kts 281°
2026-04-23 09:43 26.08749 108.42983 35946 ft 382 kts 282°
2026-04-23 09:44 26.10750 108.37442 35940 ft 389 kts 288°
2026-04-23 09:44 26.13113 108.32019 35944 ft 389 kts 288°
2026-04-23 09:45 26.15480 108.26618 35950 ft 389 kts 288°
2026-04-23 09:45 26.17835 108.21180 35952 ft 390 kts 288°
2026-04-23 09:46 26.20181 108.15730 35956 ft 390 kts 288°
2026-04-23 09:46 26.22524 108.10272 35947 ft 390 kts 288°
2026-04-23 09:47 26.24862 108.04823 35945 ft 390 kts 288°
2026-04-23 09:47 26.27197 107.99370 35951 ft 391 kts 288°
2026-04-23 09:48 26.29533 107.93904 35953 ft 390 kts 288°
2026-04-23 09:48 26.31863 107.88460 35963 ft 389 kts 288°
2026-04-23 09:49 26.34191 107.82998 35966 ft 391 kts 288°
2026-04-23 09:49 26.36520 107.77526 35961 ft 391 kts 288°
2026-04-23 09:50 26.38838 107.72059 35964 ft 390 kts 288°
2026-04-23 09:50 26.41165 107.66589 35962 ft 391 kts 288°
2026-04-23 09:51 26.43493 107.61109 35960 ft 390 kts 288°
2026-04-23 09:51 26.45803 107.55648 35965 ft 389 kts 288°
2026-04-23 09:52 26.48088 107.50210 35958 ft 389 kts 288°
2026-04-23 09:52 26.50397 107.44739 35961 ft 389 kts 288°
2026-04-23 09:53 26.52719 107.39257 35966 ft 390 kts 288°
2026-04-23 09:53 26.55033 107.33789 35960 ft 389 kts 288°
2026-04-23 09:54 26.57324 107.28370 35963 ft 389 kts 288°
2026-04-23 09:54 26.59641 107.22910 35961 ft 389 kts 288°
2026-04-23 09:55 26.61957 107.17433 35958 ft 389 kts 288°
2026-04-23 09:55 26.64269 107.11956 35959 ft 390 kts 288°
2026-04-23 09:56 26.66584 107.06474 35963 ft 389 kts 287°
2026-04-23 09:56 26.68893 107.00993 35962 ft 389 kts 288°
2026-04-23 09:57 26.71193 106.95546 35959 ft 390 kts 288°
2026-04-23 09:57 26.73505 106.90062 35961 ft 390 kts 288°
2026-04-23 09:58 26.75823 106.84562 35961 ft 390 kts 288°
2026-04-23 09:58 26.78289 106.79135 35961 ft 397 kts 295°
2026-04-23 09:58 26.80032 106.76688 35963 ft 409 kts 303°
2026-04-23 09:59 26.82108 106.74471 35963 ft 416 kts 307°
2026-04-23 09:59 26.86550 106.70253 35959 ft 419 kts 309°
2026-04-23 10:00 26.90248 106.66745 35962 ft 419 kts 308°
2026-04-23 10:00 26.95391 106.61747 35961 ft 418 kts 308°
2026-04-23 10:01 26.99762 106.57447 35960 ft 418 kts 308°
2026-04-23 10:01 27.04126 106.53139 35964 ft 418 kts 308°
2026-04-23 10:02 27.08457 106.48854 35962 ft 418 kts 308°
2026-04-23 10:02 27.12828 106.44528 35962 ft 418 kts 308°
2026-04-23 10:03 27.17188 106.40202 35959 ft 419 kts 308°
2026-04-23 10:03 27.21575 106.35870 35964 ft 420 kts 308°
2026-04-23 10:04 27.25962 106.31573 35954 ft 418 kts 308°
2026-04-23 10:04 27.30351 106.27278 35950 ft 419 kts 308°
2026-04-23 10:05 27.34754 106.22971 35956 ft 420 kts 309°
2026-04-23 10:05 27.39159 106.18652 35953 ft 421 kts 309°
2026-04-23 10:06 27.43572 106.14322 35944 ft 420 kts 309°
2026-04-23 10:06 27.47969 106.10004 35937 ft 419 kts 309°
2026-04-23 10:07 27.52371 106.05673 35940 ft 420 kts 309°
2026-04-23 10:07 27.56770 106.01340 35943 ft 420 kts 309°
2026-04-23 10:08 27.61169 105.97003 35939 ft 420 kts 309°
2026-04-23 10:08 27.65571 105.92660 35936 ft 421 kts 309°
2026-04-23 10:09 27.71959 105.86012 35939 ft 411 kts 301°
2026-04-23 10:09 27.73587 105.83417 35920 ft 400 kts 292°
2026-04-23 10:09 27.74715 105.80605 35942 ft 392 kts 284°
2026-04-23 10:10 27.76307 105.74760 35939 ft 390 kts 281°
2026-04-23 10:10 27.77813 105.68871 35904 ft 389 kts 282°
2026-04-23 10:11 27.79396 105.63009 35925 ft 392 kts 284°
2026-04-23 10:11 27.81417 105.57251 35929 ft 397 kts 287°
2026-04-23 10:12 27.83251 105.52515 35924 ft 394 kts 288°
2026-04-23 10:12 27.85831 105.45872 35925 ft 395 kts 288°
2026-04-23 10:13 27.87660 105.41141 35924 ft 396 kts 288°
2026-04-23 10:13 27.90054 105.35524 35928 ft 398 kts 290°
2026-04-23 10:14 27.92949 105.29010 35921 ft 398 kts 290°
2026-04-23 10:14 27.95021 105.24328 35915 ft 398 kts 290°
2026-04-23 10:15 27.97746 105.18843 35914 ft 407 kts 298°
2026-04-23 10:15 28.01930 105.14360 35912 ft 431 kts 317°
2026-04-23 10:16 28.07063 105.10782 35938 ft 441 kts 321°
2026-04-23 10:16 28.12349 105.07260 35907 ft 438 kts 320°
2026-04-23 10:17 28.17553 105.03692 35924 ft 435 kts 319°
2026-04-23 10:17 28.22675 105.00105 35918 ft 435 kts 319°
2026-04-23 10:18 28.27819 104.96474 35917 ft 435 kts 319°
2026-04-23 10:18 28.32943 104.92855 35912 ft 434 kts 319°
2026-04-23 10:19 28.38074 104.89234 35914 ft 434 kts 320°
2026-04-23 10:19 28.43226 104.85615 35919 ft 435 kts 320°
2026-04-23 10:20 28.48388 104.82008 35914 ft 435 kts 320°
2026-04-23 10:20 28.53557 104.78396 35910 ft 436 kts 320°
2026-04-23 10:21 28.58720 104.74780 35905 ft 436 kts 320°
2026-04-23 10:21 28.63852 104.71178 35905 ft 435 kts 320°
2026-04-23 10:22 28.69009 104.67559 35905 ft 435 kts 320°
2026-04-23 10:22 28.74171 104.63931 35906 ft 436 kts 320°
2026-04-23 10:23 28.79335 104.60300 35907 ft 436 kts 320°
2026-04-23 10:23 28.84495 104.56660 35906 ft 436 kts 320°
2026-04-23 10:24 28.89623 104.52994 35905 ft 435 kts 320°
2026-04-23 10:24 28.94753 104.49317 35907 ft 436 kts 320°
2026-04-23 10:25 28.99890 104.45637 35896 ft 435 kts 320°
2026-04-23 10:25 29.05013 104.41967 35895 ft 435 kts 320°
2026-04-23 10:26 29.10140 104.38287 35897 ft 435 kts 320°
2026-04-23 10:26 29.15267 104.34603 35897 ft 435 kts 320°
2026-04-23 10:27 29.20393 104.30926 35897 ft 435 kts 321°
2026-04-23 10:27 29.25913 104.27897 35896 ft 448 kts 335°
2026-04-23 10:28 29.28984 104.27077 35896 ft 460 kts 344°
2026-04-23 10:28 29.32171 104.26856 35897 ft 471 kts 353°
2026-04-23 10:28 29.38757 104.27744 35891 ft 480 kts
2026-04-23 10:29 29.45342 104.29075 35888 ft 480 kts
2026-04-23 10:29 29.51909 104.30305 35887 ft 478 kts
2026-04-23 10:30 29.58481 104.31443 35890 ft 477 kts
2026-04-23 10:30 29.65046 104.32563 35885 ft 476 kts
2026-04-23 10:31 29.71586 104.33679 35889 ft 475 kts
2026-04-23 10:31 29.78126 104.34800 35889 ft 474 kts
2026-04-23 10:32 29.84656 104.35923 35887 ft 474 kts
2026-04-23 10:32 29.91139 104.37042 35889 ft 474 kts
2026-04-23 10:33 29.97668 104.38164 35887 ft 474 kts
2026-04-23 10:33 30.04188 104.39287 35887 ft 474 kts
2026-04-23 10:34 30.10702 104.40413 35887 ft 473 kts
2026-04-23 10:34 30.17138 104.40620 35887 ft 454 kts 343°
2026-04-23 10:35 30.23022 104.38447 35889 ft 441 kts 330°
2026-04-23 10:35 30.28716 104.35751 35888 ft 444 kts 333°
2026-04-23 10:36 30.34539 104.33364 35889 ft 445 kts 335°
2026-04-23 10:36 30.40448 104.31136 35886 ft 445 kts 335°
2026-04-23 10:37 30.46120 104.28449 35888 ft 436 kts 324°
2026-04-23 10:37 30.50913 104.24339 35887 ft 425 kts 310°
2026-04-23 10:38 30.54531 104.19021 35888 ft 418 kts 297°
2026-04-23 10:38 30.56905 104.12911 35888 ft 415 kts 285°
2026-04-23 10:39 30.57945 104.06362 35886 ft 414 kts 274°
2026-04-23 10:39 30.57793 103.99675 35888 ft 415 kts 267°
2026-04-23 10:40 30.57348 103.93036 35887 ft 415 kts 269°
2026-04-23 10:40 30.57382 103.89699 36070 ft 413 kts 275°
2026-04-23 10:40 30.57797 103.86398 36385 ft 413 kts 282°
2026-04-23 10:41 30.58622 103.83162 36678 ft 414 kts 289°
2026-04-23 10:41 30.59720 103.80121 37048 ft 412 kts 292°
2026-04-23 10:41 30.60933 103.77120 37415 ft 410 kts 294°
2026-04-23 10:41 30.62165 103.74151 37760 ft 408 kts 294°
2026-04-23 10:42 30.64479 103.68095 37887 ft 411 kts 289°
2026-04-23 10:42 30.66178 103.61808 37890 ft 407 kts 285°
2026-04-23 10:43 30.67699 103.55467 37891 ft 408 kts 285°
2026-04-23 10:43 30.69208 103.49114 37891 ft 408 kts 285°
2026-04-23 10:44 30.70731 103.42745 37888 ft 409 kts 285°
2026-04-23 10:44 30.72258 103.36392 37889 ft 408 kts 285°
2026-04-23 10:45 30.73787 103.30022 37895 ft 409 kts 285°
2026-04-23 10:45 30.75309 103.23645 37886 ft 408 kts 285°
2026-04-23 10:46 30.76814 103.17326 37887 ft 408 kts 285°
2026-04-23 10:46 30.78331 103.10964 37895 ft 408 kts 285°
2026-04-23 10:47 30.79843 103.04603 37881 ft 408 kts 285°
2026-04-23 10:47 30.80666 102.98094 37894 ft 409 kts 272°
2026-04-23 10:48 30.80545 102.91473 37893 ft 409 kts 269°
2026-04-23 10:48 30.80344 102.84848 37889 ft 410 kts 270°
2026-04-23 10:49 30.80192 102.78256 37897 ft 409 kts 271°
2026-04-23 10:49 30.80064 102.71632 37891 ft 410 kts 271°
2026-04-23 10:50 30.79940 102.64996 37903 ft 411 kts 270°
2026-04-23 10:50 30.79804 102.58348 37891 ft 410 kts 270°
2026-04-23 10:51 30.79666 102.51707 37890 ft 411 kts 270°
2026-04-23 10:51 30.79530 102.45063 37888 ft 411 kts 270°
2026-04-23 10:52 30.79392 102.38417 37887 ft 411 kts 270°
2026-04-23 10:52 30.79251 102.31764 37894 ft 412 kts 270°
2026-04-23 10:53 30.79104 102.25116 37892 ft 410 kts 270°
2026-04-23 10:53 30.78955 102.18490 37892 ft 410 kts 270°
2026-04-23 10:54 30.78806 102.11847 37895 ft 411 kts 270°
2026-04-23 10:54 30.78651 102.05209 37879 ft 411 kts 270°
2026-04-23 10:55 30.78495 101.98565 37892 ft 411 kts 270°
2026-04-23 10:55 30.78349 101.91954 37885 ft 411 kts 272°
2026-04-23 10:56 30.78679 101.85320 37896 ft 411 kts 277°
2026-04-23 10:56 30.79253 101.78697 37885 ft 411 kts 277°
2026-04-23 10:57 30.79829 101.72095 37887 ft 410 kts 277°
2026-04-23 10:57 30.80389 101.65464 37890 ft 413 kts 276°
2026-04-23 10:58 30.80930 101.58829 37886 ft 411 kts 277°
2026-04-23 10:58 30.81472 101.52199 37889 ft 412 kts 277°
2026-04-23 10:59 30.82010 101.45576 37896 ft 411 kts 277°
2026-04-23 10:59 30.82452 101.40071 37892 ft 411 kts 277°
2026-04-23 11:00 30.82984 101.33454 37886 ft 411 kts 277°
2026-04-23 11:00 30.83512 101.26813 37881 ft 413 kts 277°
2026-04-23 11:01 30.84038 101.20166 37888 ft 412 kts 277°
2026-04-23 11:01 30.84564 101.13507 37882 ft 413 kts 277°
2026-04-23 11:02 30.85084 101.06853 37866 ft 413 kts 277°
2026-04-23 11:02 30.85599 101.00190 37882 ft 413 kts 276°
2026-04-23 11:03 30.86104 100.93525 37885 ft 414 kts 276°
2026-04-23 11:03 30.86591 100.86853 37870 ft 414 kts 276°
2026-04-23 11:04 30.87083 100.80216 37877 ft 415 kts 276°
2026-04-23 11:04 30.87581 100.73544 37882 ft 413 kts 277°
2026-04-23 11:05 30.88082 100.66870 37880 ft 415 kts 277°
2026-04-23 11:05 30.88582 100.60179 37875 ft 415 kts 277°
2026-04-23 11:06 30.89317 100.50128 37886 ft 415 kts 277°
2026-04-23 11:07 30.89808 100.43429 37872 ft 416 kts 277°
2026-04-23 11:07 30.90296 100.36715 37876 ft 415 kts 277°
2026-04-23 11:08 30.90781 100.30007 37886 ft 416 kts 277°
2026-04-23 11:08 30.91260 100.23292 37871 ft 415 kts 276°
2026-04-23 11:09 30.91736 100.16590 37863 ft 415 kts 277°
2026-04-23 11:09 30.92208 100.09904 37881 ft 416 kts 277°
2026-04-23 11:10 30.92671 100.03205 37854 ft 416 kts 276°
2026-04-23 11:10 30.93155 99.96500 37871 ft 416 kts 277°
2026-04-23 11:11 30.93680 99.89777 37864 ft 417 kts 277°
2026-04-23 11:11 30.94213 99.83047 37868 ft 418 kts 277°
2026-04-23 11:12 30.94745 99.76299 37867 ft 418 kts 277°
2026-04-23 11:12 30.95270 99.69604 37871 ft 418 kts 277°
2026-04-23 11:13 30.95797 99.62856 37867 ft 418 kts 278°
2026-04-23 11:13 30.96319 99.56103 37880 ft 418 kts 278°
2026-04-23 11:14 30.96838 99.49349 37865 ft 418 kts 277°
2026-04-23 11:14 30.97355 99.42594 37860 ft 418 kts 277°
2026-04-23 11:15 30.97866 99.35844 37862 ft 419 kts 278°
2026-04-23 11:15 30.98375 99.29077 37863 ft 419 kts 278°
2026-04-23 11:16 30.98878 99.22360 37857 ft 419 kts 277°
2026-04-23 11:16 30.99379 99.15594 37877 ft 419 kts 277°
2026-04-23 11:17 30.99878 99.08821 37872 ft 420 kts 278°
2026-04-23 11:17 31.00367 99.02050 37865 ft 419 kts 277°
2026-04-23 11:18 31.00835 98.95270 37877 ft 420 kts 277°
2026-04-23 11:18 31.01315 98.88487 37871 ft 420 kts 278°
2026-04-23 11:19 31.01798 98.81710 37869 ft 419 kts 278°
2026-04-23 11:19 31.02278 98.74925 37863 ft 420 kts 277°
2026-04-23 11:20 31.02758 98.68138 37884 ft 420 kts 278°
2026-04-23 11:20 31.03285 98.61348 37864 ft 421 kts 278°
2026-04-23 11:21 31.03851 98.54562 37861 ft 420 kts 278°
2026-04-23 11:21 31.04424 98.47772 37866 ft 421 kts 278°
2026-04-23 11:22 31.04987 98.40964 37861 ft 421 kts 278°
2026-04-23 11:22 31.05541 98.34164 37861 ft 421 kts 278°
2026-04-23 11:23 31.06096 98.27366 37859 ft 422 kts 279°
2026-04-23 11:23 31.06651 98.20550 37859 ft 422 kts 278°
2026-04-23 11:24 31.07196 98.13782 37860 ft 421 kts 278°
2026-04-23 11:24 31.07740 98.06922 37852 ft 422 kts 278°
2026-04-23 11:25 31.08274 98.00154 37850 ft 422 kts 278°
2026-04-23 11:25 31.08818 97.93340 37847 ft 422 kts 279°
2026-04-23 11:26 31.09360 97.86520 37846 ft 421 kts 279°
2026-04-23 11:26 31.09897 97.79696 37851 ft 423 kts 279°
2026-04-23 11:27 31.10432 97.72853 37849 ft 423 kts 279°
2026-04-23 11:27 31.10969 97.66028 37848 ft 423 kts 279°
2026-04-23 11:28 31.11499 97.59188 37854 ft 423 kts 279°
2026-04-23 11:28 31.12018 97.52361 37843 ft 421 kts 279°
2026-04-23 11:29 31.12539 97.45543 37839 ft 422 kts 279°
2026-04-23 11:29 31.13053 97.38726 37839 ft 422 kts 279°
2026-04-23 11:30 31.13572 97.31899 37840 ft 421 kts 279°
2026-04-23 11:30 31.14084 97.25080 37846 ft 423 kts 279°
2026-04-23 11:31 31.14475 97.18239 37841 ft 426 kts 272°
2026-04-23 11:31 31.13481 97.11411 37844 ft 434 kts 261°
2026-04-23 11:32 31.11899 97.04580 37846 ft 436 kts 261°
2026-04-23 11:32 31.10348 96.97749 37837 ft 434 kts 261°
2026-04-23 11:33 31.08870 96.90927 37835 ft 434 kts 262°
2026-04-23 11:33 31.07406 96.84089 37829 ft 434 kts 262°
2026-04-23 11:34 31.05940 96.77266 37837 ft 433 kts 262°
2026-04-23 11:34 31.04468 96.70450 37829 ft 433 kts 262°
2026-04-23 11:35 31.03004 96.63648 37831 ft 434 kts 262°
2026-04-23 11:35 31.01527 96.56815 37827 ft 434 kts 262°
2026-04-23 11:36 31.00046 96.49990 37831 ft 435 kts 262°
2026-04-23 11:36 30.98563 96.43181 37833 ft 434 kts 262°
2026-04-23 11:37 30.97093 96.36354 37814 ft 434 kts 262°
2026-04-23 11:37 30.95651 96.29556 37824 ft 432 kts 262°
2026-04-23 11:38 30.94221 96.22769 37821 ft 435 kts 262°
2026-04-23 11:38 30.92764 96.15930 37825 ft 434 kts 262°
2026-04-23 11:39 30.91310 96.09102 37807 ft 433 kts 262°
2026-04-23 11:39 30.89861 96.02296 37790 ft 434 kts 262°
2026-04-23 11:40 30.88396 95.95468 37784 ft 435 kts 261°
2026-04-23 11:40 30.86927 95.88610 37780 ft 437 kts 261°
2026-04-23 11:41 30.85698 95.82877 37785 ft 437 kts 262°
2026-04-23 11:41 30.84227 95.76034 37789 ft 435 kts 261°
2026-04-23 11:42 30.82765 95.69178 37788 ft 436 kts 261°
2026-04-23 11:42 30.81346 95.62334 37786 ft 433 kts 262°
2026-04-23 11:43 30.79925 95.55470 37786 ft 438 kts 262°
2026-04-23 11:43 30.78504 95.48608 37787 ft 435 kts 262°
2026-04-23 11:44 30.77090 95.41780 37780 ft 436 kts 262°
2026-04-23 11:44 30.75661 95.34889 37787 ft 438 kts 262°
2026-04-23 11:45 30.74224 95.28006 37784 ft 439 kts 261°
2026-04-23 11:45 30.72783 95.21112 37788 ft 439 kts 262°
2026-04-23 11:46 30.71339 95.14214 37780 ft 439 kts 262°
2026-04-23 11:46 30.69877 95.07304 37790 ft 442 kts 261°
2026-04-23 11:47 30.68662 95.01549 37781 ft 439 kts 261°
2026-04-23 11:47 30.67205 94.94646 37786 ft 440 kts 261°
2026-04-23 11:48 30.65750 94.87736 37775 ft 439 kts 261°
2026-04-23 11:48 30.64277 94.80817 37782 ft 441 kts 261°
2026-04-23 11:49 30.62789 94.73905 37777 ft 441 kts 261°
2026-04-23 11:49 30.61297 94.67044 37776 ft 441 kts 261°
2026-04-23 11:50 30.59803 94.60132 37781 ft 441 kts 261°
2026-04-23 11:50 30.58532 94.54212 37786 ft 441 kts 261°
2026-04-23 11:51 30.57044 94.47276 37778 ft 445 kts 261°
2026-04-23 11:51 30.55542 94.40300 37773 ft 445 kts 260°
2026-04-23 11:52 30.53995 94.33319 37774 ft 446 kts 259°
2026-04-23 11:52 30.52464 94.26319 37776 ft 448 kts 260°
2026-04-23 11:53 30.50937 94.19346 37780 ft 444 kts 261°
2026-04-23 11:53 30.49506 94.12392 37774 ft 444 kts 261°
2026-04-23 11:54 30.48080 94.05446 37779 ft 443 kts 261°
2026-04-23 11:54 30.46649 93.98500 37770 ft 446 kts 259°
2026-04-23 11:55 30.45164 93.91501 37756 ft 445 kts 259°
2026-04-23 11:55 30.43727 93.84535 37756 ft 446 kts 261°
2026-04-23 11:56 30.42308 93.77543 37758 ft 446 kts 261°
2026-04-23 11:56 30.40854 93.70543 37766 ft 446 kts 259°
2026-04-23 11:57 30.39351 93.63538 37763 ft 448 kts 258°
2026-04-23 11:57 30.37432 93.56696 37755 ft 448 kts 254°
2026-04-23 11:58 30.35290 93.49859 37748 ft 454 kts 254°
2026-04-23 11:58 30.33137 93.43042 37762 ft 450 kts 254°
2026-04-23 11:59 30.31038 93.36206 37762 ft 450 kts 255°
2026-04-23 11:59 30.28969 93.29406 37759 ft 443 kts 253°
2026-04-23 12:00 30.26873 93.22698 37758 ft 443 kts 255°
2026-04-23 12:00 30.24798 93.15953 37762 ft 451 kts 255°
2026-04-23 12:01 30.22692 93.09161 37756 ft 445 kts 255°
2026-04-23 12:01 30.20674 93.02664 37755 ft 450 kts 254°
2026-04-23 12:02 30.18554 92.95846 37754 ft 450 kts 254°
2026-04-23 12:02 30.16447 92.89086 37749 ft 445 kts 255°
2026-04-23 12:03 30.14343 92.82343 37746 ft 447 kts 254°
2026-04-23 12:03 30.12210 92.75586 37744 ft 447 kts 254°
2026-04-23 12:04 30.10083 92.68848 37749 ft 447 kts 254°
2026-04-23 12:04 30.07953 92.62116 37755 ft 445 kts 254°
2026-04-23 12:05 30.05827 92.55385 37741 ft 445 kts 254°
2026-04-23 12:05 30.03510 92.48759 37742 ft 449 kts 246°
2026-04-23 12:06 29.99871 92.42857 37813 ft 458 kts 230°
2026-04-23 12:06 29.91992 92.36363 37850 ft 465 kts 216°
2026-04-23 12:07 29.89268 92.34507 37671 ft 455 kts 216°
2026-04-23 12:07 29.86537 92.32637 36634 ft 456 kts 216°
2026-04-23 12:07 29.83816 92.30735 35290 ft 463 kts 217°
2026-04-23 12:07 29.81037 92.28752 33595 ft 478 kts 217°
2026-04-23 12:08 29.78180 92.26690 31933 ft 490 kts 217°
2026-04-23 12:08 29.75279 92.24600 30484 ft 493 kts 217°
2026-04-23 12:08 29.72367 92.22503 29022 ft 495 kts 216°
2026-04-23 12:08 29.69456 92.20399 27513 ft 495 kts 216°
2026-04-23 12:09 29.66520 92.18272 25862 ft 499 kts 216°
2026-04-23 12:09 29.63585 92.16151 24535 ft 494 kts 216°
2026-04-23 12:09 29.60700 92.14069 23316 ft 484 kts 215°
2026-04-23 12:09 29.57877 92.12033 22122 ft 475 kts 213°
2026-04-23 12:10 29.55135 92.10069 21098 ft 457 kts 213°
2026-04-23 12:10 29.52443 92.08130 20520 ft 453 kts 213°
2026-04-23 12:10 29.49826 92.06234 20347 ft 435 kts 213°
2026-04-23 12:10 29.47242 92.04357 20357 ft 448 kts 212°
2026-04-23 12:11 29.44573 92.02424 20361 ft 453 kts 213°
2026-04-23 12:11 29.41914 92.00507 20361 ft 452 kts 213°
2026-04-23 12:11 29.39233 91.98584 20356 ft 457 kts 213°
2026-04-23 12:11 29.36582 91.96677 20350 ft 455 kts 214°
2026-04-23 12:12 29.34042 91.94525 20370 ft 453 kts 223°
2026-04-23 12:12 29.31978 91.91829 20360 ft 443 kts 238°
2026-04-23 12:12 29.30501 91.88894 20350 ft 409 kts 245°
2026-04-23 12:12 29.29343 91.86045 20355 ft 379 kts 248°
2026-04-23 12:13 29.28321 91.83380 20354 ft 353 kts 248°
2026-04-23 12:13 29.27338 91.80847 20336 ft 344 kts 248°
2026-04-23 12:13 29.26386 91.78361 19715 ft 339 kts 251°
2026-04-23 12:13 29.25834 91.75769 19132 ft 331 kts 268°
2026-04-23 12:14 29.25899 91.73168 18767 ft 330 kts 277°
2026-04-23 12:14 29.26200 91.70554 18394 ft 330 kts 279°
2026-04-23 12:14 29.26554 91.67966 18012 ft 327 kts 279°
2026-04-23 12:14 29.26903 91.65443 17909 ft 322 kts 279°
2026-04-23 12:15 29.27234 91.62986 17864 ft 295 kts 279°
2026-04-23 12:15 29.27520 91.60795 17857 ft 266 kts 278°
2026-04-23 12:15 29.27784 91.58726 17939 ft 259 kts 278°
2026-04-23 12:15 29.28046 91.56680 17995 ft 262 kts 279°
2026-04-23 12:16 29.28313 91.54603 18005 ft 264 kts 278°
2026-04-23 12:16 29.28575 91.52533 18009 ft 262 kts 278°
2026-04-23 12:16 29.28832 91.50469 18008 ft 262 kts 278°
2026-04-23 12:16 29.29089 91.48405 18008 ft 262 kts 278°
2026-04-23 12:17 29.29346 91.46335 18005 ft 262 kts 278°
2026-04-23 12:17 29.29603 91.44264 18018 ft 262 kts 278°
2026-04-23 12:17 29.29857 91.42196 18016 ft 261 kts 279°
2026-04-23 12:17 29.30112 91.40133 18021 ft 261 kts 278°
2026-04-23 12:18 29.30339 91.38068 18016 ft 262 kts 274°
2026-04-23 12:18 29.30389 91.35974 18014 ft 263 kts 270°
2026-04-23 12:18 29.30372 91.33908 18022 ft 255 kts 270°
2026-04-23 12:18 29.30347 91.31905 18016 ft 242 kts 270°
2026-04-23 12:19 29.30322 91.30050 17985 ft 226 kts 270°
2026-04-23 12:19 29.30299 91.28267 17692 ft 223 kts 270°
2026-04-23 12:19 29.30276 91.26489 17400 ft 223 kts 270°
2026-04-23 12:19 29.30252 91.24732 17102 ft 223 kts 270°
2026-04-23 12:20 29.30227 91.22940 16803 ft 222 kts 270°
2026-04-23 12:20 29.30207 91.21181 16501 ft 221 kts 270°
2026-04-23 12:20 29.30184 91.19445 16203 ft 220 kts 269°
2026-04-23 12:20 29.30160 91.17695 15911 ft 212 kts 270°
2026-04-23 12:21 29.30138 91.16079 15624 ft 201 kts 269°
2026-04-23 12:21 29.30115 91.14479 15348 ft 199 kts 269°
2026-04-23 12:21 29.30094 91.12895 15089 ft 198 kts 269°
2026-04-23 12:21 29.30072 91.11322 14831 ft 197 kts 269°
2026-04-23 12:22 29.30052 91.09754 14568 ft 198 kts 270°
2026-04-23 12:22 29.30035 91.08185 14307 ft 196 kts 270°
2026-04-23 12:22 29.30014 91.06633 14043 ft 193 kts 269°
2026-04-23 12:22 29.29991 91.05096 13802 ft 194 kts 269°
2026-04-23 12:23 29.29962 91.03549 13545 ft 193 kts 269°
2026-04-23 12:23 29.29938 91.02013 13282 ft 192 kts 270°
2026-04-23 12:23 29.29919 91.00495 13018 ft 190 kts 269°
2026-04-23 12:23 29.29900 90.98980 12767 ft 190 kts 269°
2026-04-23 12:24 29.29890 90.97478 12501 ft 188 kts 271°
2026-04-23 12:24 29.29905 90.95983 12208 ft 187 kts 270°
2026-04-23 12:24 29.29863 90.94492 11960 ft 188 kts 268°
2026-04-23 12:24 29.29836 90.93005 11710 ft 183 kts 269°
2026-04-23 12:25 29.29817 90.91722 11725 ft 140 kts 269°
2026-04-23 12:25 29.29801 90.90760 11718 ft 101 kts 269°
2026-04-23 12:25 29.29794 90.90228 11712 ft 48 kts 269°
2026-04-23 12:25 29.29783 90.90038 11722 ft 7 kts 244°
2026-04-23 12:26 29.29765 90.90023 11729 ft 4 kts 206°
2026-04-23 12:26 29.29738 90.90013 11729 ft 3 kts 193°
2026-04-23 12:26 29.29714 90.90009 11729 ft 3 kts 186°
2026-04-23 12:26 29.29679 90.90008 11723 ft 7 kts 181°
2026-04-23 12:27 29.29651 90.90007 11718 ft 0 kts 180°
2026-04-23 12:28 29.29643 90.90007 11728 ft 2 kts 180°
2026-04-23 12:28 29.29618 90.90007 11728 ft 5 kts 180°
2026-04-23 12:28 29.29580 90.90007 11714 ft 6 kts 180°
2026-04-23 12:28 29.29544 90.89989 11727 ft 5 kts 223°
2026-04-23 12:29 29.29530 90.89952 11719 ft 5 kts 255°
2026-04-23 12:29 29.29526 90.89908 11724 ft 6 kts 266°
2026-04-23 12:29 29.29524 90.89855 11723 ft 7 kts 268°
2026-04-23 12:29 29.29523 90.89795 11715 ft 8 kts 269°
2026-04-23 12:30 29.29522 90.89727 11728 ft 9 kts 269°
2026-04-23 12:30 29.29521 90.89651 11722 ft 10 kts 269°
2026-04-23 12:30 29.29520 90.89567 11728 ft 11 kts 269°
2026-04-23 12:30 29.29519 90.89476 11725 ft 12 kts 269°
2026-04-23 12:31 29.29517 90.89379 11724 ft 12 kts 269°
2026-04-23 12:31 29.29516 90.89277 11723 ft 13 kts 269°
2026-04-23 12:31 29.29511 90.89222 11728 ft 6 kts 248°
2026-04-23 12:31 29.29469 90.89199 11719 ft 7 kts 188°
2026-04-23 12:32 29.29404 90.89197 11712 ft 11 kts 179°
2026-04-23 12:32 29.29340 90.89189 11719 ft 5 kts 193°
2026-04-23 12:32 29.29314 90.89180 11714 ft 4 kts 196°
2026-04-23 12:32 29.29280 90.89168 11723 ft 6 kts 197°
2026-04-23 12:33 29.29270 90.89163 11709 ft 0 kts 207°
2026-04-23 12:33 29.29268 90.89159 11709 ft 1 kts 224°
2026-04-23 12:33 29.29265 90.89124 11720 ft 3 kts 284°
2026-04-23 12:33 29.29267 90.89114 11729 ft 1 kts 285°
2026-04-23 12:34 29.29270 90.89104 11724 ft 3 kts 285°
2026-04-23 12:34 29.29277 90.89073 11729 ft 2 kts 284°
2026-04-23 12:34 29.29278 90.89067 11720 ft 0 kts 284°